This is the latest recevied weather packets stored in our database for station/object WX4FUN-13. If no packets are shown the sender has not sent any weather packets the latest 10 day(s).
| Time | Temp. | Humidity | Pressure | Rain* | Wind** | Luminosity | Snow |
|---|---|---|---|---|---|---|---|
| 1777424905 | 15° C | 38% | 1018.9 hPa | 0 mm | - | 0 W/m² | - |
| 1777424302 | 15° C | 38% | 1019 hPa | 0 mm | - | 0 W/m² | - |
| 1777423702 | 15° C | 38% | 1018.6 hPa | 0 mm | - | 0 W/m² | - |
| 1777423103 | 15.56° C | 38% | 1018.5 hPa | 0 mm | - | 0 W/m² | - |
| 1777422504 | 15.56° C | 38% | 1018.4 hPa | 0 mm | - | 0 W/m² | - |
| 1777421904 | 16.11° C | 37% | 1018.3 hPa | 0 mm | - | 0 W/m² | - |
| 1777421301 | 16.67° C | 39% | 1018.2 hPa | 0 mm | - | 0 W/m² | - |
| 1777420699 | 16.67° C | 38% | 1018.2 hPa | 0 mm | - | 0 W/m² | - |
| 1777420099 | 17.22° C | 39% | 1018.2 hPa | 0 mm | - | 2 W/m² | - |
| 1777419499 | 17.78° C | 39% | 1018.1 hPa | 0 mm | - | 4 W/m² | - |
| 1777418899 | 18.33° C | 38% | 1018 hPa | 0 mm | - | 7 W/m² | - |
| 1777418299 | 18.33° C | 37% | 1018 hPa | 0 mm | - | 14 W/m² | - |
| 1777417698 | 18.89° C | 36% | 1017.9 hPa | 0 mm | - | 22 W/m² | - |
| 1777417096 | 18.89° C | 36% | 1017.8 hPa | 0 mm | - | 29 W/m² | - |
| 1777416492 | 19.44° C | 36% | 1017.7 hPa | 0 mm | - | 41 W/m² | - |
| 1777415892 | 20° C | 37% | 1017.6 hPa | 0 mm | - | 48 W/m² | - |
| 1777415293 | 20° C | 37% | 1017.6 hPa | 0 mm | - | 51 W/m² | - |
| 1777414691 | 20.56° C | 36% | 1017.6 hPa | 0 mm | - | 65 W/m² | - |
| 1777414089 | 21.11° C | 36% | 1017.6 hPa | 0 mm | - | 74 W/m² | - |
| 1777413487 | 21.67° C | 36% | 1017.4 hPa | 0 mm | - | 86 W/m² | - |
| 1777412883 | 21.67° C | 35% | 1017.4 hPa | 0 mm | - | 100 W/m² | - |
| 1777412283 | 21.67° C | 35% | 1017.5 hPa | 0 mm | - | 122 W/m² | - |
| 1777411682 | 22.22° C | 35% | 1017.5 hPa | 0 mm | - | 131 W/m² | - |
| 1777411083 | 22.22° C | 33% | 1017.7 hPa | 0 mm | - | 123 W/m² | - |
| 1777410483 | 21.67° C | 33% | 1017.8 hPa | 0 mm | - | 145 W/m² | - |
* Rain latest hour (hover to see other rain measurements)
** Current wind speed in m/s (hover to see current wind gust speed)